Regional Weather Roundup
Issued by NWS

Home | Current Version | Previous Version | Graphics & Text | Print | Product List | Glossary On
Versions: 1 2 3 4 5 6 7 8 9 10 11 12 13 14 15 16 17 18 19 20 21 22 23 24 25 26 27 28 29 30 31 32 33 34 35 36 37 38 39 40 41 42 43 44 45 46 47 48 49 50
010
ASUS45 KPSR 240010
RWRAZ

ARIZONA HOURLY REGIONAL WEATHER ROUNDUP
NATIONAL WEATHER SERVICE PHOENIX AZ
500 PM MST MON OCT 23 2017

NOTE: FAIR INDICATES FEW OR NO CLOUDS BELOW 12,000 FEET WITH NO
SIGNIFICANT WEATHER AND/OR OBSTRUCTIONS TO VISIBILITY.

AZZ001>003-036-240100-
NORTHWEST ARIZONA

CITY           SKY/WX    TMP DP  RH WIND       PRES   REMARKS
BULLHEAD CITY  CLEAR     91  32  12 N23G31    30.07S
KINGMAN        CLEAR     82  29  14 N20       30.27S
6HR MIN TEMP:  76; 6HR MAX TEMP:  87;

$$

AZZ004>008-015-016-018-240100-
NORTH CENTRAL ARIZONA

CITY           SKY/WX    TMP DP  RH WIND       PRES   REMARKS
GRAND CANYON   PTCLDY    68  20  16 NE10      30.49R
6HR MIN TEMP:  68; 6HR MAX TEMP:  74;

WILLIAMS       CLEAR     72  21  15 N7        30.47R
PRESCOTT       CLEAR     83  24  11 N13       30.31S
6HR MIN TEMP:  71; 6HR MAX TEMP:  86;

FLAGSTAFF      CLEAR     67  19  16 NE12      30.48S
6HR MIN TEMP:  67; 6HR MAX TEMP:  73;

PAYSON         CLEAR     79  18  10 N13G21    30.33S
PAGE           CLEAR     73  28  18 N5        30.36S
6HR MIN TEMP:  63; 6HR MAX TEMP:  76;

$$

AZZ009>014-017-240100-
NORTHEAST ARIZONA

CITY           SKY/WX    TMP DP  RH WIND       PRES   REMARKS
WINSLOW        CLEAR     76  19  11 NW12      30.36F
6HR MIN TEMP:  64; 6HR MAX TEMP:  78;

SAINT JOHNS    CLEAR     74  20  13 NW7       30.37S
6HR MIN TEMP:  65; 6HR MAX TEMP:  77;

WINDOW ROCK    CLEAR     69  23  17 NW12      30.44S
6HR MIN TEMP:  69; 6HR MAX TEMP:  74;

SHOW LOW       CLEAR     70  19  14 N10       30.44S
$$

AZZ540-542>544-546-548-240100-
GREATER PHOENIX AREA

CITY           SKY/WX    TMP DP  RH WIND       PRES   REMARKS
PHOENIX        CLEAR     95  26   8 SW7       29.99F
6HR MIN TEMP:  85; 6HR MAX TEMP:  97;

BUCKEYE        CLEAR     95  27   8 W7        30.01F
GLENDALE       PTCLDY    97  23   7 S6        30.01F
LUKE AFB       CLEAR     93  31  11 SW8       29.99F
6HR MIN TEMP:  83; 6HR MAX TEMP:  96;

DEER VALLEY    CLEAR     94  21   7 SW7       30.02F
6HR MIN TEMP:  85; 6HR MAX TEMP:  95;

SCOTTSDALE     CLEAR     94  22   7 W5        30.04F
6HR MIN TEMP:  84; 6HR MAX TEMP:  96;

MESA-FALCON    CLEAR    N/A N/A N/A W7        30.02F
MESA-GATEWAY   CLEAR     93  25   8 NW9       30.02F
$$

AZZ539-553-240100-
SOUTHWEST MARICOPA COUNTY AND PINAL COUNTY

CITY           SKY/WX    TMP DP  RH WIND       PRES   REMARKS
CASA GRANDE    NOT AVBL
GILA BEND      CLEAR     93  27   9 NE5       30.00F
$$

AZZ503-504-507>509-240100-
SOUTHEAST ARIZONA

CITY           SKY/WX    TMP DP  RH WIND       PRES   REMARKS
TUCSON         CLEAR     93  20   7 N12       30.09F
6HR MIN TEMP:  82; 6HR MAX TEMP:  96;

DAVIS-MONTHAN  CLEAR     91  18   7 NW12      30.08S
6HR MIN TEMP:  82; 6HR MAX TEMP:  95;

RYAN FIELD     CLEAR     91  21   8 NW13G18   30.09
NOGALES        CLEAR     90  18   7 NW8       30.15F
6HR MIN TEMP:  85; 6HR MAX TEMP:  95;

SIERRA VISTA   CLEAR     86  11   6 CALM      30.24S
6HR MIN TEMP:  83; 6HR MAX TEMP:  90;

DOUGLAS        CLEAR     87  14   6 W6        30.19S
6HR MIN TEMP:  78; 6HR MAX TEMP:  91;

SAFFORD        CLEAR     87  13   6 W8        30.11F
6HR MIN TEMP:  75; 6HR MAX TEMP:  89;

$$

AZZ532-240100-
SOUTHWEST ARIZONA

CITY           SKY/WX    TMP DP  RH WIND       PRES   REMARKS
YUMA           SUNNY     97  26   8 N10       29.98F
6HR MIN TEMP:  88; 6HR MAX TEMP:  98;

$$

CAZ041-043-047-048-061-525>527-560>570-240100-
SOUTHERN CALIFORNIA

CITY           SKY/WX    TMP DP  RH WIND       PRES   REMARKS
DOWNTOWN L.A.  SUNNY     99  27   8 W5        29.98S
6HR MIN TEMP:  93; 6HR MAX TEMP: 102;

L.A. AIRPORT   SUNNY     87  40  19 W10       29.99S
6HR MIN TEMP:  87; 6HR MAX TEMP: 101;

SAN DIEGO      MOSUNNY   89  36  15 NW10      29.98S
6HR MIN TEMP:  87; 6HR MAX TEMP:  92;

BURBANK        SUNNY    100  20   5 S5        30.02S
6HR MIN TEMP:  88; 6HR MAX TEMP: 102;

ONTARIO        SUNNY    101  23   6 NE10      30.02F
6HR MIN TEMP:  98; 6HR MAX TEMP: 104;

RIVERSIDE      SUNNY     99  30   9 N8G22     30.03S
6HR MIN TEMP:  93; 6HR MAX TEMP: 102;

PALM SPRINGS   SUNNY    102  30   8 N9        30.06S
6HR MIN TEMP:  97; 6HR MAX TEMP: 104;

EL CENTRO NAS  SUNNY     99  17   5 NW5       30.01S
6HR MIN TEMP:  93; 6HR MAX TEMP: 101;

IMPERIAL       SUNNY     98  28   8 NW3       29.98F
6HR MIN TEMP:  90; 6HR MAX TEMP: 100;

BLYTHE         SUNNY     96  37  12 E6        30.01S
6HR MIN TEMP:  85; 6HR MAX TEMP: 101;

NEEDLES        CLEAR     95  29   9 N20G29    30.09S
6HR MIN TEMP:  87; 6HR MAX TEMP:  97;

$$

NVZ020-UTZ003-240100-
SOUTHERN NEVADA-UTAH

CITY           SKY/WX    TMP DP  RH WIND       PRES   REMARKS
LAS VEGAS      CLEAR     90  34  13 N12       30.23S
6HR MIN TEMP:  81; 6HR MAX TEMP:  91;

SALT LAKE CITY MOCLDY    62  33  33 NW12      30.58R
6HR MIN TEMP:  62; 6HR MAX TEMP:  66;

$$

NMZ009-TXZ055-240100-
NEW MEXICO-WEST TEXAS

CITY           SKY/WX    TMP DP  RH WIND       PRES   REMARKS
ALBUQUERQUE    PTCLDY    73  24  16 NW15      30.31S
6HR MIN TEMP:  67; 6HR MAX TEMP:  76;

EL PASO        CLEAR     82  25  12 SE3       30.18S
6HR MIN TEMP:  73; 6HR MAX TEMP:  85;

$$


........................KEY........................
SKY/WX - SKY CONDITION/WEATHER
TMP    - TEMPERATURE IN FAHRENHEIT
DP     - DEW POINT IN FAHRENHEIT
RH     - RELATIVE HUMIDITY IN PERCENT
WIND   - DIRECTION AND SPEED IN MILES PER HOUR (MPH)
VRB    - VARIABLE WIND DIRECTION
PRES   - MEAN SEA LEVEL PRESSURE IN INCHES OF MERCURY
         F - FALLING PRESSURE   R - RISING PRESSURE
         S - STEADY PRESSURE
VSB    - VISIBILITY IN MILES
HX     - HEAT INDEX IN FAHRENHEIT
WCI    - WIND CHILL INDEX IN FAHRENHEIT
TC     - TEMPERATURE IN CELSIUS WHICH IS ALSO KNOWN AS
         TEMPERATURE IN CENTIGRADE
AFB    - AIR FORCE BASE
         LUKE AFB IS LUKE AIR FORCE BASE
         DAVIS-MONTHAN IS DAVIS-MONTHAN AIR FORCE BASE
NAS    - NAVAL AIR STATION
         EL CENTRO NAS IS EL CENTRO NAVAL AIR STATION
N/A    - NOT AVAILABLE





USA.gov is the U.S. government's official web portal to all federal, state and local government web resources and services.